Skip Page Navigation
NASA JPL Caltech
NASA Logo - Jet Propulsion Laboratory + View the NASA Portal
+ Center for Near-Earth Object Studies
JPL Home Earth Solar System Stars & Galaxies Technology
JPL Solar System Dynamics
BODIES ORBITS EPHEMERIDES TOOLS PHYSICAL DATA DISCOVERY FAQ SITE MAP
JPL Small-Body Database Browser
Search: [ help ]  
(2012 VU76)
Classification: Apollo [NEO]          SPK-ID: 3617715
Ephemeris | Orbit Diagram | Orbital Elements | Mission Design | Physical Parameters | Close-Approach Data ]

[ hide orbit diagram ]

For accurate long-term ephemerides, please instead use our Horizons system.This orbit viewer was implemented using two-body methods, and hence should not be used for determining accurate long-term trajectories (over several years or decades) or planetary encounter circumstances.


Orbital Elements at Epoch 2459200.5 (2020-Dec-17.0) TDB
Reference: JPL 12 (heliocentric ecliptic J2000)
 Element Value Uncertainty (1-sigma)   Units 
e .1284945032246965 1.4492e-06  
a 1.018616109429433 2.4058e-07 au
q .8877295384716246 1.2666e-06 au
i 6.756434374518118 6.0335e-05 deg
node 52.34955729010967 2.4221e-05 deg
peri 88.30064295818372 0.00011712 deg
M 240.816211871845 0.0010447 deg
tp 2459324.816542041256
(2021-Apr-20.31654204)
0.0011337 TDB
period 375.5037143703605
1.03
0.00013303
3.642e-07
d
yr
n .9587122210059709 3.3964e-07 deg/d
Q 1.149502680387241 2.7149e-07 au
  Orbit Determination Parameters
   # obs. used (total)      47  
   data-arc span      596 days (1.63 yr)  
   first obs. used      2012-11-13  
   last obs. used      2014-07-02  
   planetary ephem.      DE441  
   SB-pert. ephem.      SB441-N16  
   condition code      2  
   norm. resid. RMS      .34466  
   source      ORB  
   producer      Otto Matic  
   solution date      2021-Apr-15 07:13:25  

Additional Information
 Earth MOID = .00445577 au 
 Jupiter MOID = 3.84598 au 
 T_jup = 5.980 
[ show covariance matrix ]

Ephemeris | Orbit Diagram | Orbital Elements | Mission Design | Physical Parameters | Close-Approach Data ]

Physical Parameter Table
Parameter Symbol Value Units Sigma Reference Notes
absolute magnitude H 25.7   n/a MPO244152  

[ hide close-approach data ]
Close-Approach Data   ...sorted by Date/Time (TDB)
Date/Time (TDB) Time Uncertainty
(days_HH:MM)
Body Nominal Distance (au) Minimum Distance (au) Maximum Distance (au) V-relative (km/s) V-infinity (km/s) JD (TDB) Time Uncertainty (minutes) Semi-major axis (km) Semi-minor axis (km) range-LOV angle (deg) N-sigma BP Orbit Ref. Reference Modified
1914-Oct-29 17:39 01:51 Earth 0.469672786508668 0.457163330330267 0.482182244476035 17.9200367709922 17.9197201921407 2420435.235365954 111.063644953889 623797.721892508 4.92261166277379 0.444241169247313 89899.1948938626 T 12 CATAB v2.0g-lin.ifort 2021-Apr-15 07:13:26 2021-Apr-15 07:13
1915-Nov-08 17:46 02:56 Earth 0.261174632458277 0.253262816174636 0.26908656141145 11.8329150515727 11.832052856691 2420810.239949993 176.453776660838 394625.82644538 4.24168235655546 1.46475860043905 184353.699521979 T 12 CATAB v2.0g-lin.ifort 2021-Apr-15 07:13:26 2021-Apr-15 07:13
1916-Nov-16 18:43 06:30 Earth 0.0509092168519125 0.0478728344807664 0.0539469901819516 6.10076782859999 6.0921828914961 2421184.279877483 390.384688616268 152027.743843234 15.8244092323116 5.34903256378437 39123.5971724564 T 12 CATAB v2.0g-lin.ifort 2021-Apr-15 07:13:26 2021-Apr-15 07:13
1917-Oct-20 00:52 1_07:20 Earth 0.139053166348125 0.137183348507251 0.140932684901279 3.64186935841066 3.63660408208314 2421521.535951394 1879.67402360259 109991.094999517 52.0425580636416 -31.8704842730137 152241.15270705 T 12 CATAB v2.0g-lin.ifort 2021-Apr-15 07:13:26 2021-Apr-15 07:13
1918-Jan-18 05:57 4_00:18 Earth 0.140245686531919 0.138801595751563 0.141693073664162 3.31218503181388 3.30644406818702 2421611.747924722 5777.9689118593 79680.6977671799 18.3683351682768 -25.0705979228707 320500.977449829 T 12 CATAB v2.0g-lin.ifort 2021-Apr-15 07:13:26 2021-Apr-15 07:13
1918-Jul-28 11:51 2_10:18 Earth 0.183125987798357 0.182403782986303 0.183925013274779 3.41985311433501 3.41559590188262 2421802.993926172 3497.65318098302 190964.002499703 35.1904784247249 -78.5590159871939 476022.212058232 T 12 CATAB v2.0g-lin.ifort 2021-Apr-15 07:13:26 2021-Apr-15 07:13
1919-May-13 00:16 16:23 Earth 0.0357173130068687 0.0250795980870167 0.0467928012459029 4.23307179490575 4.2154120349684 2422091.510866649 982.965276459128 576422.223867546 7.3848945617603 18.9092166600268 377666.000307465 T 12 CATAB v2.0g-lin.ifort 2021-Apr-15 07:13:26 2021-Apr-15 07:13
1920-May-21 08:16 13:11 Earth 0.142284415780823 0.131247842555314 0.153325473368286 8.38163160715646 8.37939708663284 2422465.844710557 790.69245340808 551900.734122915 8.01294174941078 -4.3153724726287 151689.990082409 T 12 CATAB v2.0g-lin.ifort 2021-Apr-15 07:13:26 2021-Apr-15 07:13
1921-May-30 07:43 12:15 Earth 0.322601373431501 0.31199638487058 0.3332077752521 13.3768756995486 13.3762582500014 2422839.821645602 735.044072496934 529933.928593213 10.5779144076903 -3.69768591378036 227507.315651149 T 12 CATAB v2.0g-lin.ifort 2021-Apr-15 07:13:26 2021-Apr-15 07:13
1949-Nov-03 12:02 00:08 Earth 0.333259463087784 0.332689797295067 0.333829129655883 13.9237064913223 13.9231322638555 2433224.001662171 8.47138030851962 28418.2571234217 3.47403421550458 1.73014816696861 348945.791203323 T 12 CATAB v2.0g-lin.ifort 2021-Apr-15 07:13:26 2021-Apr-15 07:13
1950-Nov-12 05:00 00:15 Earth 0.147196321572946 0.147018084280311 0.147374562085492 8.62475977655774 8.62266073400307 2433597.708094705 15.3505977608573 8954.12355292925 7.06918073877517 7.07263794140529 325832.890148382 T 12 CATAB v2.0g-lin.ifort 2021-Apr-15 07:13:26 2021-Apr-15 07:13
1951-Nov-19 01:01 00:18 Earth 0.0368836070571808 0.0366493362419019 0.037117882090596 4.27076039384997 4.25381169441074 2433969.542459828 17.5144822263183 11698.9128330873 10.9463012420628 1.48519255616522 13478.1104305887 T 12 CATAB v2.0g-lin.ifort 2021-Apr-15 07:13:26 2021-Apr-15 07:13
1952-Sep-07 15:15 03:56 Earth 0.181669161464111 0.181535779750208 0.181802577782567 3.5376533497116 3.53350504571186 2434263.135338360 236.295986142166 7739.55436189734 8.04084808579849 30.7502792349328 837918.514654104 T 12 CATAB v2.0g-lin.ifort 2021-Apr-15 07:13:26 2021-Apr-15 07:13
1953-Mar-21 02:27 12:36 Earth 0.135509660943042 0.135202980974415 0.135842686084827 3.44005604453627 3.43433549395991 2434457.602172068 756.089192726051 95639.6632533846 35.5090006219811 80.3891559469253 341859.828806778 T 12 CATAB v2.0g-lin.ifort 2021-Apr-15 07:13:26 2021-Apr-15 07:13
1953-Jun-08 14:59 12:11 Earth 0.140980633425251 0.140526463585603 0.141445223468312 3.46265630853392 3.45719387452904 2434537.124203905 730.987810032168 64680.4527182559 46.7975989260669 -69.2585072540365 268732.748118698 T 12 CATAB v2.0g-lin.ifort 2021-Apr-15 07:13:26 2021-Apr-15 07:13
1954-May-16 05:03 01:02 Earth 0.0495874213997468 0.048724663300473 0.050450326423477 6.01615721572063 6.00721913266279 2434878.710155922 62.3348941634222 43236.2206698653 8.2996726334066 -5.98416319549718 81300.5589384562 T 12 CATAB v2.0g-lin.ifort 2021-Apr-15 07:13:26 2021-Apr-15 07:13
1955-May-26 07:11 01:00 Earth 0.256547662980956 0.255719765179111 0.257375578191764 11.5356858792392 11.5347855158627 2435253.799257294 60.06798240794 41418.645748755 12.5098277682601 -4.68435814186411 194611.321019026 T 12 CATAB v2.0g-lin.ifort 2021-Apr-15 07:13:26 2021-Apr-15 07:13
1956-Jun-04 08:28 00:55 Earth 0.461441184539517 0.460666383880015 0.462215993453907 17.3749305223086 17.3745981865445 2435628.852715539 55.442158292278 38758.7677923492 16.4701080891681 -4.57572445610183 274944.421379854 T 12 CATAB v2.0g-lin.ifort 2021-Apr-15 07:13:26 2021-Apr-15 07:13
1980-Nov-03 07:12 00:06 Earth 0.343852851327881 0.343808317569887 0.343897385085719 14.2462332262064 14.2456892900001 2444546.799871626 5.50005795920335 2220.68912204614 3.33198081108382 0.555886150389636 115522.62643162 T 12 CATAB v2.0g-lin.ifort 2021-Apr-15 07:13:26 2021-Apr-15 07:13
1981-Nov-12 21:03 00:07 Earth 0.132841301559635 0.13275920957618 0.132923393816683 8.23523684861329 8.23280090418487 2444921.376818642 7.31566598434038 4104.62876749265 3.46770461622456 -4.41167191838267 312722.431198737 T 12 CATAB v2.0g-lin.ifort 2021-Apr-15 07:13:26 2021-Apr-15 07:13
1982-Nov-17 23:34 00:13 Earth 0.0753592151787909 0.0752446718276194 0.0754737988878909 3.75476731550817 3.74533890308216 2445291.481798023 13.3789762400567 6341.78348268786 3.07822267239267 25.6136354769449 576021.654789806 T 12 CATAB v2.0g-lin.ifort 2021-Apr-15 07:13:26 2021-Apr-15 07:13
1983-Aug-19 21:35 01:16 Earth 0.18980505869574 0.189803935544852 0.189806195295952 3.513927437325 3.50993020980947 2445566.399095238 75.6381645131724 3072.30443698393 32.1440352634541 89.1223470957641 545474.968655491 T 12 CATAB v2.0g-lin.ifort 2021-Apr-15 07:13:26 2021-Apr-15 07:13
1984-May-08 09:30 00:14 Earth 0.0846262908098867 0.0844702023941545 0.0847839746535207 3.61106316470853 3.60233350667743 2445828.895990677 14.2433268707874 19943.689898184 5.54363680643234 66.8845223401333 632254.045962419 T 12 CATAB v2.0g-lin.ifort 2021-Apr-15 07:13:26 2021-Apr-15 07:13
1985-May-18 19:11 00:10 Earth 0.119588600964113 0.11942755367849 0.119749649661033 7.77697266191609 7.77410721732395 2446204.299251324 10.2111871929641 8056.90824564712 10.4626231465317 -4.81310420678167 115106.404640161 T 12 CATAB v2.0g-lin.ifort 2021-Apr-15 07:13:26 2021-Apr-15 07:13
1986-May-29 00:10 00:10 Earth 0.327402201054941 0.327247445278436 0.327556957062945 13.519689972176 13.5190880037701 2446579.506772176 9.64679114247618 7729.25318316563 14.8977433840099 -3.27984818495033 149199.148820254 T 12 CATAB v2.0g-lin.ifort 2021-Apr-15 07:13:26 2021-Apr-15 07:13
